User: anonymous
Location: Mason Neck State Park
(38.6428°N, 77.1981°W)
Time: 07:17:44
(UTC-04:00)
Language:

Cosmos 1400 Rocket - Orbit

View from above orbital plane
View from above orbital plane
View from above satellite
View from above satellite

Ground track
Ground track

The orbit data is extracted from the following two-line orbital elements,

1 13403U 82079B   14243.50038959  .00001485  00000-0  10516-3 0  6463
2 13403 081.1732 356.7276 0036602 038.6921 321.6912 15.03699635743136
Epoch (UTC): 31 August 2014 12:00:33
Eccentricity: 0.0036602
inclination: 81.1732°
perigee height: 530 km
apogee height: 581 km
right ascension of ascending node: 356.7276°
argument of perigee: 38.6921°
revolutions per day: 15.03699635
mean anomaly at epoch: 321.6912°
orbit number at epoch: 74313

The dashed part of the orbit path shows where the satellite is in the earth's shadow,  

DLR